Location: York
(31.8935°S, 116.7682°E)
Time: 00:12:05
(UTC+08:00)

Envisat - Pass Details

Date: 23 May 2021
Orbit: 764 x 766 km, 98.1° (Epoch: 14 June)

Event Time Altitude Azimuth Distance (km) Brightness Sun altitude
Rises 04:46:55 0° 18° (NNE) 3,216 6.6 -27.8°
Reaches altitude 10° 04:49:12 10° 20° (NNE) 2,298 5.8 -27.3°
Maximum altitude 04:54:16 74° 104° (ESE) 804 3.1 -26.3°
Enters shadow 04:56:20 37° 181° (S) 1,200 3.9 -25.8°
